Preview of NWS' New Version of Forecast
This preview is not operational and should not be used for support decisions.

Regional Weather Roundup (RWR)

Issued by National Weather Service (NWS)

                            
000
ASPQ40 PGUM 200110
RWRPQ 
WEATHER ROUNDUP FOR THE MARIANAS AND MICRONESIA
NATIONAL WEATHER SERVICE TIYAN GU
1100 AM CHST TUE AUG 20 2019

GUZ001>004-200200-
MARIANA ISLANDS-
  
CITY           SKY/WX    TMP DP  RH WIND       PRES   REMARKS
GUAM AIRPORT   PTSUNNY   84  75  74 SE10      29.85S HX  92           
ANDERSEN AFB   LGT RAIN  86  75  70 S10       29.86S HX  95           
ROTA AIRPORT   MOSUNNY   82  73  74 S14       29.82S                  
TINIAN AP      MOSUNNY   84  75  74 S15       29.82S HX  92           
SAIPAN AP      SUNNY     88  77  70 S12       29.84S HX 100           

$$

PMZ161-200200-
REPUBLIC OF PALAU-
  
CITY           SKY/WX    TMP DP  RH WIND       PRES   REMARKS
KOROR AP       PTSUNNY   84  75  74 SW12G17   29.80F HX  92           
KOROR WSO      NOT AVBL                                               

$$

PMZ171>174-200200-
FEDERATED STATES OF MICRONESIA-
  
CITY           SKY/WX    TMP DP  RH WIND       PRES   REMARKS
YAP AIRPORT    CLOUDY    84  75  74 SW9       29.80R HX  92           
CHUUK AP       NOT AVBL                                               
POHNPEI AP     PTSUNNY   88  79  74 N6        29.77S HX 102           
POHNPEI WSO    PTSUNNY   90  79  70 NW3       29.80F HX 105           
KOSRAE AP      PTSUNNY   90  79  70 NW9       29.75F HX 105           

$$

PMZ181-200200-
REPUBLIC OF THE MARSHALL ISLANDS-
  
CITY           SKY/WX    TMP DP  RH WIND       PRES   REMARKS
KWAJALEIN AP   MOSUNNY   88  77  70 E5        29.78F HX 100           
MAJURO AP      PTSUNNY   88  79  74 S7        29.78F HX 102           
MAJURO WSO     PTSUNNY   86  77  74 S3        29.77F HX  97           

$$